Location: Ocean City
(38.3360°N, 75.0850°W)
Time: 02:49:37
(UTC-04:00)

PRISM - Visible Passes

Search period start: 25 May 2019 00:00
Search period end: 04 June 2019 00:00
Orbit: 568 x 586 km, 98.1° (Epoch: 24 May)

Date Brightness Start Highest point End Pass type
(mag) Time Alt. Az. Time Alt. Az. Time Alt. Az.
25 May ? 01:11:17 10° NNE 01:13:18 26° NE 01:13:18 26° NE visible
25 May ? 02:48:06 10° NW 02:49:35 13° WNW 02:49:35 13° WNW visible
26 May ? 01:15:20 10° NNE 01:17:28 28° NE 01:17:28 28° NE visible
26 May ? 02:52:32 10° NW 02:53:45 12° WNW 02:53:45 12° WNW visible
27 May ? 01:19:23 10° NNE 01:21:39 30° NNE 01:21:39 30° NNE visible
27 May ? 02:57:07 10° NW 02:57:55 11° WNW 02:57:55 11° WNW visible
28 May ? 01:23:27 10° NNE 01:25:49 33° NNE 01:25:49 33° NNE visible
29 May ? 01:27:30 10° NNE 01:29:58 35° NNE 01:29:58 35° NNE visible
30 May ? 01:31:35 10° NNE 01:34:08 37° NNE 01:34:08 37° NNE visible
31 May ? 01:35:40 10° NNE 01:38:18 39° N 01:38:18 39° N visible
01 Jun ? 01:39:44 10° N 01:42:27 40° N 01:42:27 40° N visible
02 Jun ? 01:43:50 10° N 01:46:36 40° N 01:46:36 40° N visible
03 Jun ? 01:47:55 10° N 01:50:44 40° NNW 01:50:44 40° NNW visible
